TimePST,TemperatureF,Dew PointF,Humidity,Sea Level PressureIn,VisibilityMPH,Wind Direction,Wind SpeedMPH,Gust SpeedMPH,PrecipitationIn,Events,Conditions,WindDirDegrees,DateUTC
12:56 AM,46.0,39.9,79,29.94,8.0,West,9.2,-,N/A,,Clear,260,2011-11-24 08:56:00
1:56 AM,39.9,36.0,86,29.96,7.0,Calm,Calm,-,N/A,,Clear,0,2011-11-24 09:56:00
2:56 AM,48.0,39.9,74,29.94,10.0,WSW,6.9,-,N/A,,Clear,250,2011-11-24 10:56:00
3:56 AM,46.0,39.9,79,29.95,10.0,West,12.7,-,N/A,,Clear,260,2011-11-24 11:56:00
4:56 AM,46.9,39.9,77,29.95,10.0,WSW,15.0,-,N/A,,Clear,240,2011-11-24 12:56:00
5:56 AM,46.0,39.0,76,29.97,10.0,West,15.0,-,N/A,,Clear,260,2011-11-24 13:56:00
6:56 AM,44.1,39.0,82,30.00,10.0,NW,6.9,-,N/A,,Clear,320,2011-11-24 14:56:00
7:56 AM,46.9,39.9,77,30.01,10.0,SSW,5.8,-,N/A,,Clear,200,2011-11-24 15:56:00
8:56 AM,51.1,41.0,68,30.02,10.0,Variable,3.5,-,N/A,,Clear,0,2011-11-24 16:56:00
9:56 AM,54.0,39.9,59,30.04,10.0,West,17.3,-,N/A,,Clear,260,2011-11-24 17:56:00
10:56 AM,54.0,39.9,59,30.03,10.0,WSW,18.4,-,N/A,,Clear,240,2011-11-24 18:56:00
11:56 AM,55.0,39.0,55,30.02,10.0,WSW,18.4,-,N/A,,Clear,250,2011-11-24 19:56:00
12:56 PM,55.9,37.9,51,30.01,10.0,SW,15.0,-,N/A,,Clear,230,2011-11-24 20:56:00
1:56 PM,57.0,37.0,47,30.01,10.0,WSW,10.4,-,N/A,,Clear,240,2011-11-24 21:56:00
2:56 PM,57.0,37.9,49,30.01,10.0,West,13.8,-,N/A,,Clear,260,2011-11-24 22:56:00
3:56 PM,54.0,36.0,51,30.02,10.0,West,21.9,29.9,N/A,,Clear,260,2011-11-24 23:56:00
4:56 PM,51.1,37.0,59,30.04,10.0,West,20.7,-,N/A,,Clear,260,2011-11-25 00:56:00
5:56 PM,48.9,37.9,66,30.06,10.0,West,15.0,-,N/A,,Clear,260,2011-11-25 01:56:00
6:56 PM,48.9,37.9,66,30.07,10.0,West,16.1,-,N/A,,Clear,260,2011-11-25 02:56:00
7:56 PM,48.0,37.9,68,30.09,10.0,West,12.7,-,N/A,,Clear,280,2011-11-25 03:56:00
8:56 PM,48.0,37.0,66,30.10,10.0,West,11.5,-,N/A,,Clear,280,2011-11-25 04:56:00
9:56 PM,46.9,37.9,71,30.11,10.0,West,6.9,-,N/A,,Clear,280,2011-11-25 05:56:00
10:56 PM,46.9,39.0,74,30.12,10.0,West,13.8,-,N/A,,Clear,280,2011-11-25 06:56:00
11:56 PM,48.0,37.0,66,30.13,10.0,WNW,6.9,-,N/A,,Clear,290,2011-11-25 07:56:00